OpenBCM V1.08-5-g2f4a (Linux)

Packet Radio Mailbox

IZ3LSV

[San Dona' di P. JN]

 Login: GUEST





  
CX2SA  > KEPS     05.07.24 01:27l 447 Lines 21437 Bytes #10 (0) @ AMSAT
BID : ORB24187.1
Read: GUEST
Subj: 2Line Orbital Elements 24187.AMSAT
Path: IZ3LSV<I0OJJ<PI8ZTM<OZ5BBS<CX2SA
Sent: 240705/0024Z @:CX2SA.SAL.URY.SOAM #:41724 [Salto] FBB7.00e $:ORB24187.1
From: CX2SA@CX2SA.SAL.URY.SOAM
To  : KEPS@AMSAT


QST de W1STR

AMSAT Orbital Elements for Amateur Satellites in TLE Format
>From Orbital Analysis Office
New England Sci-Tech STEM Education Center
Natick, MA July 05, 2024
To all radio amateurs


These element sets describe the orbits of various satellites
in use by the amateur radio community. For details see:
www.amsat.org/keplerian-elements-formats/

A daily update of element sets is available at:
www.amsat.org/tle/daily-bulletin.txt
or without bulletin text:
www.amsat.org/tle/dailytle.txt


AO-07
1 07530U 74089B   24186.63531819 -.00000032  00000-0  86636-4 0  9999
2 07530 101.9779 181.4468 0012576  52.1702  61.9504 12.53676646271226
UO-11
1 14781U 84021B   24186.58801396  .00002163  00000-0  24846-3 0  9996
2 14781  97.7051 155.3383 0008793  30.2468 329.9254 14.86813743151073
AO-27
1 22825U 93061C   24186.74411632  .00000189  00000-0  89820-4 0  9996
2 22825  98.7874 239.7020 0008954  34.5625 325.6137 14.30515801605396
FO-29
1 24278U 96046B   24186.56950155 -.00000030  00000-0  33312-5 0  9996
2 24278  98.5804 118.9472 0350640 143.1022 219.4803 13.53191795376784
NOAA-15
1 25338U 98030A   24186.84080322  .00000348  00000-0  16195-3 0  9999
2 25338  98.5675 213.5984 0009062 273.4426  86.5718 14.26619082359955
GO-32
1 25397U 98043D   24186.52159165  .00000130  00000-0  76516-4 0  9998
2 25397  98.9223 153.5039 0002391  99.9413 260.2035 14.24064299349888
ISS
1 25544U 98067A   24186.63628924  .00012374  00000-0  22753-3 0  9990
2 25544  51.6401 228.8735 0010264  30.3735 112.2172 15.49569153461250
NO-44
1 26931U 01043C   24186.67646882  .00000255  00000-0  12761-3 0  9999
2 26931  67.0516 286.3697 0007390 277.2691  82.7571 14.31268006188617
SO-50
1 27607U 02058C   24186.37448695  .00001857  00000-0  26778-3 0  9998
2 27607  64.5533 168.7149 0025910 103.5118 256.8875 14.79088537158863
CO-55
1 27844U 03031E   24186.59516272  .00000527  00000-0  25172-3 0  9994
2 27844  98.6764 193.3813 0011067  93.9544 266.2900 14.23299740 90290
CO-57
1 27848U 03031J   24186.46584807  .00000443  00000-0  21711-3 0  9995
2 27848  98.6794 193.4887 0010853 108.4582 251.7777 14.22735803 89995
RS-22
1 27939U 03042A   24186.85830332  .00001799  00000-0  30802-3 0  9994
2 27939  98.2926 343.3393 0012061  10.5769 136.3197 14.70049399110877
NOAA-18
1 28654U 05018A   24186.83699941  .00000276  00000-0  17056-3 0  9996
2 28654  98.8744 263.6557 0014344  17.9222 342.2453 14.13245104985752
CO-58
1 28895U 05043F   24186.62406718  .00002186  00000-0  39117-3 0  9990
2 28895  98.2033 322.4778 0014465 304.3927  55.5909 14.67826470997014
CO-65
1 32785U 08021C   24186.53065163  .00005745  00000-0  50395-3 0  9992
2 32785  97.7557 151.7154 0008672 267.6863  92.3366 14.96995502878149
AAUSAT2
1 32788U 08021F   24186.44703845  .00020086  00000-0  97926-3 0  9997
2 32788  97.5934 166.7463 0008110 109.9785 250.2323 15.18329399880945
CO-66
1 32791U 08021J   24186.89698948  .00009322  00000-0  67386-3 0  9994
2 32791  97.6897 157.9729 0003424 227.5603 132.5333 15.04263725879265
RS-30
1 32953U 08025A   24186.77748844  .00000030  00000-0  14335-3 0  9999
2 32953  82.5025  78.5462 0020606  66.7479 293.5767 12.43143060731319
PRISM
1 33493U 09002B   24186.10536756  .00022534  00000-0  10375-2 0  9991
2 33493  98.2039 235.1963 0012804 183.9766 176.1368 15.20255823841614
NOAA-19
1 33591U 09005A   24186.79088762  .00000264  00000-0  16578-3 0  9995
2 33591  99.0462 242.7758 0012945 240.2112 119.7773 14.13039899794115
SRMSAT
1 37841U 11058D   24186.31939659  .00000479  00000-0  11741-3 0  9991
2 37841  19.9731  53.1582 0011742 282.8446 234.6880 14.11134991656987
RS-40
1 38735U 12041C   24186.89105959  .00000031  00000-0  15178-3 0  9990
2 38735  82.4760 158.8480 0017173 175.7450 184.3778 12.42611360541461
ZACUBE-1
1 39417U 13066B   24186.58795653  .00004869  00000-0  50471-3 0  9996
2 39417  97.7343 142.1684 0052307 102.5957 258.1117 14.89442374574176
Delfi-N3xt
1 39428U 13066N   24186.32553623  .00009476  00000-0  11968-2 0  9995
2 39428  97.8384 104.2077 0101650  34.1252 326.6438 14.78467421568621
GOMX-1
1 39430U 13066Q   24186.88537331  .00002266  00000-0  38136-3 0  9994
2 39430  97.7307  60.1989 0139294 196.0018 163.6764 14.64281995565637
LO-74
1 39440U 13066AA  24186.84887220  .00003930  00000-0  46431-3 0  9992
2 39440  97.8131 130.1405 0068523 215.2411 144.4263 14.83561089572154
AO-73
1 39444U 13066AE  24186.44623826  .00007682  00000-0  73781-3 0  9998
2 39444  97.7199 145.1972 0049991  84.1469 276.5445 14.92379077572681
SPROUT
1 39770U 14029E   24186.86931503  .00246917  00000-0  35586-2 0  9996
2 39770  98.0061 341.4595 0004617 228.3375 131.7483 15.55135993550396
DTUSAT-2
1 40030U 14033W   24186.84490405  .00005903  00000-0  49559-3 0  9995
2 40030  98.0086 139.7575 0011310  92.3437 267.9080 14.98689806545859
EO-80
1 40032U 14033Y   24186.41265732  .00007033  00000-0  58876-3 0  9991
2 40032  98.0059 139.3189 0012066  99.7106 260.5479 14.98719821545257
XW-2C
1 40906U 15049H   24186.82419555  .00031775  00000-0  70291-3 0  9993
2 40906  97.4763 204.1057 0006811 219.5530 140.5222 15.43734857487199
XW-2D
1 40907U 15049J   24186.81858851  .00051686  00000-0  85863-3 0  9993
2 40907  97.4706 206.8115 0006660 199.0223 161.0781 15.51906820487439
LILACSAT-2
1 40908U 15049K   24186.82688547  .00009886  00000-0  37806-3 0  9997
2 40908  97.5225 195.6661 0010149 290.0414  69.9731 15.26750914486184
XW-2B
1 40911U 15049N   24186.78950255  .00048741  00000-0  83483-3 0  9999
2 40911  97.4678 206.8497 0006354 201.7161 158.3822 15.51062885487290
IO-86
1 40931U 15052B   24180.14795698  .00001574  00000-0  12542-3 0  9998
2 40931   5.9997 274.4192 0013395 238.9714 120.9097 14.77898591473081
ChubuSat-2
1 41338U 16012B   24186.55221458  .00005339  00000-0  32747-3 0  9998
2 41338  31.0011 279.0301 0011313  51.3799 308.7850 15.08543812460224
ChubuSat-3
1 41339U 16012C   24186.63455357  .00004845  00000-0  30166-3 0  9999
2 41339  31.0079 277.0922 0011340  56.7391 303.4332 15.07942568460219
Horyu-4
1 41340U 16012D   24186.44695422  .00010418  00000-0  50923-3 0  9995
2 41340  31.0008 223.0787 0010185 150.4342 209.6876 15.16903088460772
Lapan A3
1 41603U 16040E   24186.82302393  .00004060  00000-0  16302-3 0  9991
2 41603  97.1409 199.7448 0013212  46.2388 313.9942 15.25419888445913
Pratham
1 41783U 16059A   24186.54833765  .00001148  00000-0  22151-3 0  9994
2 41783  97.8355 205.0697 0031565 327.8777  32.0503 14.64955914415081
CAS-2T
1 41847U 16066G   24186.52504666  .00002854  00000-0  42066-3 0  9998
2 41847  98.4605 257.6955 0354802 125.0919 238.4084 14.41369991401995
CAS-4B
1 42759U 17034B   24186.88563142  .00017217  00000-0  60843-3 0  9992
2 42759  43.0176 126.4842 0010078 108.2644 251.9306 15.28877146390117
CAS-4A
1 42761U 17034D   24186.88567852  .00019055  00000-0  66993-3 0  9991
2 42761  43.0214 124.8218 0009162 122.6870 237.4867 15.28996618390123
Aalto 1
1 42775U 17036L   24186.87012435  .00136844  00000-0  10130-2 0  9996
2 42775  97.0996 216.7796 0007776 137.9708 222.2154 15.72480579391882
D-SAT
1 42794U 17036AF  24186.46906656  .00007521  00000-0  52040-3 0  9995
2 42794  97.4810 167.7331 0111338  90.4334 270.9649 15.00982669383316
TechnoSat
1 42829U 17042E   24186.83225689  .00003834  00000-0  33928-3 0  9999
2 42829  97.3831   6.9137 0012606  20.6031 339.5698 14.96774779379813
AO-91
1 43017U 17073E   24186.60733971  .00007395  00000-0  45912-3 0  9998
2 43017  97.5765  61.4865 0207927 235.1564 122.9948 14.93729931358266
TianYi 2
1 43155U 18008A   24186.84693924  .00159116  00000-0  15016-2 0  9999
2 43155  97.2321 241.2861 0001261  13.3701 346.7593 15.66532647357662
Zhou Enlai
1 43156U 18008B   24186.70341549  .00635566  16442-3  18999-2 0  9999
2 43156  97.2287 243.7958 0006571 243.3248 116.7354 15.92334291357729
TianYi 6
1 43158U 18008D   24186.70707176  .00057391  00000-0  10244-2 0  9992
2 43158  97.2537 235.3834 0004904  48.6570 311.5102 15.49861525357184
S-Net D
1 43186U 18014G   24186.60932453  .00005954  00000-0  42569-3 0  9991
2 43186  97.5903  88.1451 0009216 313.4239  46.6219 15.04798864351129
S-Net B
1 43187U 18014H   24186.61166399  .00006034  00000-0  43143-3 0  9990
2 43187  97.5906  88.0984 0009972 307.4079  52.6239 15.04790652351123
S-Net A
1 43188U 18014J   24186.61045712  .00005980  00000-0  42749-3 0  9996
2 43188  97.5913  88.2112 0009851 308.4330  51.6011 15.04800002351122
S-Net C
1 43189U 18014K   24186.61376057  .00005972  00000-0  42686-3 0  9997
2 43189  97.5925  88.1658 0011531 299.3893  60.6182 15.04791639349671
Ten-Koh
1 43677U 18084G   24186.46353307  .00002764  00000-0  25044-3 0  9997
2 43677  98.0647 340.5040 0013141 325.0429  34.9927 14.96177536309302
PO-101
1 43678U 18084H   24186.87322395  .00001945  00000-0  18166-3 0  9993
2 43678  98.0735 345.3806 0008473 341.9065  18.1852 14.95393177309568
QO-100
1 43700U 18090A   24186.86126230  .00000142  00000-0  00000+0 0  9997
2 43700   0.0156  64.7117 0001885  83.9591 110.5071  1.00272700 20771
MinXSS-2
1 43758U 18099A   24186.60375860  .00010402  00000-0  65140-3 0  9996
2 43758  97.5531 248.6988 0015414 255.2744 104.6777 15.09466278305411
AO-95
1 43770U 18099N   24186.44751151  .00008204  00000-0  56385-3 0  9991
2 43770  97.5450 243.9263 0012379 305.5412  54.4661 15.06132424305163
RANGE-B
1 43772U 18099Q   24186.61815793  .00011458  00000-0  70012-3 0  9993
2 43772  97.5238 247.6298 0005309 192.4246 167.6853 15.10421254305359
RANGE-A
1 43773U 18099R   24186.55379210  .00005258  00000-0  39884-3 0  9999
2 43773  97.5024 239.2316 0011924 271.2640  88.7220 15.02591975305041
